EDT,Max TemperatureF,Mean TemperatureF,Min TemperatureF,Max Dew PointF,MeanDew PointF,Min DewpointF,Max Humidity, Mean Humidity, Min Humidity, Max Sea Level PressureIn, Mean Sea Level PressureIn, Min Sea Level PressureIn, Max VisibilityMiles, Mean VisibilityMiles, Min VisibilityMiles, Max Wind SpeedMPH, Mean Wind SpeedMPH, Max Gust SpeedMPH,PrecipitationIn, CloudCover, Events, WindDirDegrees
2013-4-1,63,58,54,58,56,53,97,90,80,29.91,29.87,29.83,9,7,3,17,10,17,0.01,5,Rain,230
2013-4-2,60,52,45,53,38,30,97,61,33,30.14,30.08,29.93,10,10,7,15,8,21,0.01,0,,49
2013-4-3,55,50,45,45,37,27,90,64,35,30.30,30.22,30.12,10,10,10,14,6,20,0.00,5,Rain,48
2013-4-4,64,54,45,63,49,32,100,81,55,30.32,30.06,29.77,10,6,1,17,8,51,1.94,6,Rain,82
2013-4-5,63,55,45,63,52,43,100,89,67,30.01,29.84,29.73,10,7,0,24,13,32,0.36,6,Fog-Rain,300
2013-4-6,59,50,42,45,41,31,100,80,40,30.30,30.13,30.02,10,7,0,16,4,24,0.00,0,Fog,19
2013-4-7,68,55,44,53,48,41,93,74,54,30.29,30.24,30.18,10,10,8,10,6,,0.00,0,,118
2013-4-8,71,64,57,60,57,53,90,79,68,30.22,30.18,30.14,10,10,10,15,9,,0.00,0,,199
2013-4-9,73,66,60,63,60,58,93,83,70,30.24,30.18,30.14,10,10,10,17,10,,0.00,0,,210
2013-4-10,73,67,61,63,61,59,100,88,64,30.16,30.11,30.04,10,8,0,22,9,28,0.00,2,Fog,222
2013-4-11,75,68,62,67,64,60,96,87,76,30.05,29.99,29.91,10,9,7,15,10,,0.00,2,,214
2013-4-12,71,68,64,69,65,63,100,94,88,29.91,29.80,29.72,9,5,1,22,13,31,0.64,6,Rain,203
2013-4-13,66,58,50,64,55,45,100,83,56,30.04,29.88,29.77,10,7,0,18,9,28,0.01,3,Fog,350
2013-4-14,73,61,50,58,52,47,96,70,44,30.13,30.09,30.04,10,10,6,12,2,16,0.00,0,,144
2013-4-15,71,66,61,61,59,55,93,79,65,30.20,30.10,30.03,10,9,4,21,8,31,0.54,7,Rain,104
2013-4-16,75,68,62,64,61,56,100,85,57,30.28,30.23,30.18,10,8,5,9,5,,0.00,6,Rain,61
2013-4-17,75,64,55,62,59,55,100,81,55,30.25,30.21,30.17,10,8,1,10,3,,0.01,0,,156
2013-4-18,75,68,60,64,61,57,93,76,62,30.23,30.18,30.11,10,10,9,13,5,20,0.00,2,,144
2013-4-19,75,70,66,70,67,64,100,90,82,30.09,29.99,29.90,10,6,2,21,14,32,0.33,7,Rain,194
2013-4-20,70,62,53,67,57,45,100,86,67,30.26,30.01,29.88,10,7,1,23,14,34,1.56,7,Rain,307
2013-4-21,61,54,48,47,42,36,90,62,51,30.45,30.38,30.26,10,10,10,22,10,32,0.01,0,,43
2013-4-22,57,54,51,54,51,45,97,89,76,30.38,30.21,30.14,10,6,1,25,18,34,0.28,8,Rain,16
2013-4-23,64,58,52,54,52,49,97,81,63,30.19,30.14,30.09,10,8,5,20,15,26,0.00,6,,14
2013-4-24,69,58,46,62,54,46,100,86,65,30.21,30.16,30.09,10,9,5,15,4,,0.00,1,,194
2013-4-25,71,61,52,63,56,46,94,81,65,30.29,30.18,30.08,10,9,4,17,9,26,0.02,5,Rain,22
2013-4-26,68,57,48,50,45,33,93,66,28,30.40,30.35,30.27,10,10,10,16,7,22,0.00,0,,57
2013-4-27,71,62,54,53,47,35,90,66,30,30.38,30.35,30.30,10,10,9,9,4,,0.00,0,,57
2013-4-28,71,61,52,56,48,39,80,63,32,30.30,30.22,30.14,10,10,10,12,5,18,0.00,1,,80
2013-4-29,66,64,62,63,60,55,97,86,70,30.14,30.07,30.00,10,8,2,13,8,,0.44,7,Rain,193
2013-4-30,75,67,60,64,62,59,100,90,64,30.12,30.04,29.99,10,7,1,10,3,,0.00,5,,47